FW8640 Weather Reports


time (UTC)temp
C
wind
direction
speed
KPH
gust
KPH
rain 1hr
cm
rain 24hr
cm
rain mn
cm
humidity
%
barometer
mb
20260503010018 11 0 1.6 4.8 0.00 0.03 0.00 70 1018.4
20260503005041 11 0.0 1.6 0.00 0.03 0.00 71 1018.4
20260503004019 11 0.0 1.6 0.00 0.03 0.00 70 1018.5
20260503003018 11 0.0 0.0 0.00 0.03 0.00 70 1018.6
20260503002019 11 0.0 1.6 0.00 0.03 0.00 69 1018.7
20260503001020 11 0.0 3.2 0.00 0.03 0.00 67 1018.8
20260503000019 11 0 1.6 4.8 0.00 0.03 0.00 66 1018.8
20260502235018 11 0 3.2 8.0 0.00 0.03 0.00 66 1018.9
20260502234018 11 0 1.6 6.4 0.00 0.03 0.00 66 1019.0
20260502233018 11 0 3.2 8.0 0.00 0.03 0.00 66 1019.1
20260502232019 11 0 4.8 14.5 0.00 0.03 0.00 68 1019.2
20260502231018 11 0 3.2 8.0 0.00 0.03 0.00 68 1019.2
20260502230019 11 0 3.2 12.9 0.00 0.03 0.00 69 1019.2
20260502225018 11 0 4.8 14.5 0.00 0.03 0.00 70 1019.4
20260502224019 11 0 4.8 16.1 0.00 0.03 0.00 70 1019.7
20260502223040 11 0 6.4 14.5 0.00 0.03 0.00 71 1019.3
20260502222018 11 0 6.4 20.9 0.00 0.03 0.00 73 1019.6
20260502221042 11 0 3.2 14.5 0.00 0.03 0.00 73 1020.1
20260502220017 11 0 4.8 14.5 0.00 0.03 0.00 72 1020.2
20260502215018 12 0 4.8 16.1 0.00 0.05 0.00 71 1020.0
20260502214017 12 0 4.8 17.7 0.00 0.13 0.00 71 1020.0
20260502213017 12 0.0 0.0 0.00 0.15 0.00 71 1020.0
20260502212040 12 0.0 0.0 0.00 0.15 0.00 71 1019.8
20260502211102 12 0.0 1.6 0.00 0.18 0.00 70 1019.9
20260502210019 12 0.0 3.2 0.00 0.18 0.18 70 1020.1
20260502205018 12 0.0 3.2 0.00 0.18 0.18 70 1020.1
20260502204018 12 0 1.6 3.2 0.00 0.18 0.18 69 1020.3
20260502203019 12 0.0 0.0 0.00 0.18 0.18 69 1020.3
20260502202019 12 0.0 3.2 0.00 0.18 0.18 68 1020.4
20260502201020 12 0 1.6 3.2 0.00 0.18 0.18 68 1020.5
20260502200020 12 0.0 3.2 0.00 0.18 0.18 68 1020.6
20260502195019 12 0.0 4.8 0.00 0.18 0.18 68 1020.6
20260502194041 12 0 1.6 6.4 0.00 0.18 0.18 67 1020.7
20260502193018 12 0 4.8 9.7 0.00 0.18 0.18 66 1020.7
20260502192020 12 0 3.2 14.5 0.00 0.18 0.18 65 1020.6
20260502191019 12 0.0 1.6 0.00 0.18 0.18 64 1020.5
20260502190019 12 0.0 3.2 0.00 0.18 0.18 63 1020.2
20260502185020 12 0.0 3.2 0.00 0.18 0.18 62 1020.2
20260502184021 12 0.0 3.2 0.00 0.18 0.18 62 1020.2
20260502183018 13 0.0 3.2 0.00 0.18 0.18 61 1020.0
20260502182020 13 0 1.6 4.8 0.00 0.18 0.18 60 1019.8
20260502181020 13 0 3.2 8.0 0.00 0.18 0.18 59 1019.6
20260502164018 14 0.0 3.2 0.00 0.18 0.18 55 1019.2
20260502163018 14 0.0 3.2 0.00 0.18 0.18 55 1019.0
20260502162020 15 0 4.8 9.7 0.00 0.18 0.18 55 1019.1
20260502161020 15 0 6.4 17.7 0.00 0.18 0.18 55 1019.0
20260502152018 15 0 4.8 16.1 0.03 0.18 0.18 58 1019.3
20260502151018 15 0 3.2 8.0 0.03 0.18 0.18 57 1019.2
20260502123018 17 0 1.6 8.0 0.00 0.18 0.15 42 1020.3
20260502122019 16 0 1.6 6.4 0.00 0.18 0.15 40 1020.2
20260502121018 16 0 3.2 6.4 0.00 0.18 0.15 39 1020.2
20260502115017 17 0 3.2 6.4 0.00 0.18 0.15 37 1020.6
20260502114019 17 0 3.2 9.7 0.00 0.18 0.15 38 1020.6
20260502113041 16 0 4.8 8.0 0.00 0.18 0.15 39 1020.8
20260502112018 17 0 3.2 8.0 0.00 0.18 0.15 39 1021.0
20260502111018 16 0 8.0 16.1 0.00 0.18 0.15 39 1021.0
20260502110017 16 0 3.2 12.9 0.00 0.18 0.15 40 1021.0
20260502105018 17 0 3.2 9.7 0.00 0.18 0.15 39 1021.3
20260502104019 16 0 4.8 16.1 0.00 0.18 0.15 41 1021.5
20260502103017 16 0 3.2 9.7 0.00 0.18 0.15 43 1021.6
20260502102020 16 0 4.8 14.5 0.00 0.18 0.15 42 1021.8
20260502101019 15 0 1.6 4.8 0.00 0.18 0.15 44 1021.8
20260502091019 13 0 6.4 17.7 0.00 0.18 0.15 51 1022.1
20260502071019 13 0 3.2 12.9 0.00 0.18 0.15 63 1023.0
20260502070040 13 0 3.2 8.0 0.00 0.18 0.15 64 1023.0
20260502065042 12 0 3.2 9.7 0.00 0.18 0.15 65 1023.1
20260502064019 12 0 3.2 8.0 0.00 0.18 0.15 69 1023.0
20260502063019 12 0 1.6 3.2 0.00 0.18 0.15 69 1023.1
20260502062019 12 0 1.6 6.4 0.00 0.18 0.15 69 1023.1
20260502061019 12 0 1.6 4.8 0.00 0.18 0.15 69 1023.0
20260502060020 12 0 3.2 8.0 0.00 0.18 0.15 71 1022.9
20260502055042 11 0.0 4.8 0.00 0.18 0.15 72 1022.9
20260502054019 11 0.0 3.2 0.00 0.18 0.15 73 1023.3
20260502053020 11 0 3.2 6.4 0.00 0.18 0.15 74 1023.3
20260502052020 10 0 1.6 6.4 0.00 0.18 0.15 75 1023.2
20260502051021 10 0 3.2 8.0 0.00 0.18 0.15 75 1023.2
20260502050019 10 0 3.2 6.4 0.00 0.18 0.15 76 1023.1
20260502045020 10 0 4.8 8.0 0.00 0.18 0.15 76 1023.1
20260502044020 9 0 3.2 6.4 0.00 0.18 0.15 76 1022.9
20260502043020 9 0 4.8 9.7 0.00 0.18 0.15 76 1022.9
20260502042019 9 0 3.2 6.4 0.00 0.18 0.15 75 1022.7
20260502041020 9 0 4.8 9.7 0.00 0.18 0.15 75 1022.7
20260502040019 10 0 4.8 6.4 0.00 0.18 0.15 74 1022.7
20260502035019 10 0 4.8 9.7 0.00 0.18 0.15 74 1022.7
20260502034020 9 0 4.8 14.5 0.00 0.18 0.15 73 1022.8
20260502033019 9 0 4.8 9.7 0.00 0.18 0.15 74 1022.6
20260502032042 9 0 1.6 6.4 0.00 0.18 0.15 74 1022.6
20260502031019 9 0 1.6 3.2 0.00 0.18 0.15 75 1022.5
20260502030019 10 0 1.6 6.4 0.00 0.18 0.15 75 1022.6
20260502025020 10 0.0 3.2 0.00 0.18 0.15 75 1022.6
20260502024018 10 0 4.8 12.9 0.00 0.18 0.15 76 1022.6
20260502023042 9 0 3.2 9.7 0.00 0.18 0.15 77 1022.6
20260502022019 9 0 6.4 12.9 0.00 0.18 0.15 78 1022.7
20260502021018 9 0 1.6 4.8 0.00 0.18 0.15 78 1022.8
20260502020104 9 0 1.6 4.8 0.00 0.18 0.15 79 1022.8
20260502015019 9 0 1.6 4.8 0.00 0.18 0.15 79 1022.9
20260502014018 10 0 1.6 6.4 0.00 0.18 0.15 80 1023.2
20260502013019 9 0 4.8 9.7 0.00 0.18 0.15 80 1023.2
20260502012020 9 0 1.6 4.8 0.00 0.18 0.15 80 1023.3
20260502011020 10 0.0 1.6 0.00 0.18 0.15 80 1023.4